TimeEST,TemperatureF,Dew PointF,Humidity,Sea Level PressureIn,VisibilityMPH,Wind Direction,Wind SpeedMPH,Gust SpeedMPH,PrecipitationIn,Events,Conditions,WindDirDegrees,DateUTC
12:00 AM,17.6,15.8,93,30.06,1.8,Calm,Calm,-,0.00,Snow,Light Snow,0,2013-01-29 05:00:00
12:16 AM,17.6,15.8,93,30.05,3.0,Calm,Calm,-,0.00,Snow,Light Snow,0,2013-01-29 05:16:00
12:54 AM,18.0,15.1,88,30.08,5.0,Calm,Calm,-,0.01,Snow,Light Snow,0,2013-01-29 05:54:00
1:54 AM,18.0,15.1,88,30.09,10.0,Calm,Calm,-,0.00,,Overcast,0,2013-01-29 06:54:00
2:54 AM,14.0,12.0,92,30.09,10.0,Calm,Calm,-,0.00,,Mostly Cloudy,0,2013-01-29 07:54:00
3:54 AM,10.0,8.1,92,30.09,10.0,Calm,Calm,-,0.00,,Clear,0,2013-01-29 08:54:00
4:54 AM,7.0,3.9,87,30.10,10.0,Calm,Calm,-,N/A,,Clear,0,2013-01-29 09:54:00
5:54 AM,3.9,1.0,88,30.13,10.0,Calm,Calm,-,N/A,,Clear,0,2013-01-29 10:54:00
7:54 AM,5.0,3.0,92,30.16,10.0,Calm,Calm,-,N/A,,Clear,0,2013-01-29 12:54:00
8:54 AM,12.9,12.0,96,30.19,10.0,Calm,Calm,-,N/A,,Clear,0,2013-01-29 13:54:00
9:54 AM,19.0,14.0,81,30.20,10.0,Calm,Calm,-,0.00,,Clear,0,2013-01-29 14:54:00
10:54 AM,24.1,16.0,71,30.20,10.0,NNE,3.5,-,0.00,,Clear,30,2013-01-29 15:54:00
11:54 AM,27.0,18.0,69,30.19,10.0,Calm,Calm,-,0.00,,Clear,0,2013-01-29 16:54:00
12:54 PM,28.0,19.0,69,30.17,10.0,Calm,Calm,-,0.00,,Clear,0,2013-01-29 17:54:00
1:54 PM,28.9,21.0,72,30.17,10.0,ENE,3.5,-,0.00,,Clear,60,2013-01-29 18:54:00
2:54 PM,30.0,21.9,72,30.14,10.0,Calm,Calm,-,N/A,,Clear,0,2013-01-29 19:54:00
3:54 PM,30.0,21.9,72,30.17,10.0,NW,3.5,-,N/A,,Clear,320,2013-01-29 20:54:00
4:54 PM,28.0,21.9,78,30.19,10.0,Calm,Calm,-,N/A,,Partly Cloudy,0,2013-01-29 21:54:00
5:54 PM,26.1,23.0,88,30.20,10.0,Calm,Calm,-,N/A,,Scattered Clouds,0,2013-01-29 22:54:00
6:01 PM,26.6,24.8,93,30.16,10.0,Calm,Calm,-,N/A,,Mostly Cloudy,0,2013-01-29 23:01:00
6:54 PM,27.0,24.1,89,30.19,10.0,Calm,Calm,-,N/A,,Overcast,0,2013-01-29 23:54:00
7:54 PM,27.0,24.1,89,30.19,10.0,Calm,Calm,-,N/A,,Overcast,0,2013-01-30 00:54:00
8:05 PM,28.4,24.8,86,30.15,10.0,Calm,Calm,-,N/A,,Overcast,0,2013-01-30 01:05:00
8:54 PM,28.0,25.0,88,30.18,10.0,Calm,Calm,-,N/A,,Overcast,0,2013-01-30 01:54:00
9:54 PM,28.0,26.1,92,30.18,10.0,Calm,Calm,-,N/A,,Overcast,0,2013-01-30 02:54:00
10:12 PM,28.4,26.6,93,30.15,10.0,Calm,Calm,-,0.00,,Overcast,0,2013-01-30 03:12:00
10:47 PM,30.2,28.4,93,30.14,4.0,Calm,Calm,-,0.00,Rain,Light Freezing Rain,0,2013-01-30 03:47:00
10:54 PM,30.0,28.9,96,30.16,3.0,Calm,Calm,-,0.00,Rain,Light Freezing Rain,0,2013-01-30 03:54:00
11:20 PM,30.2,28.4,93,30.13,4.0,Calm,Calm,-,0.01,Rain,Light Freezing Rain,0,2013-01-30 04:20:00
11:36 PM,30.2,28.4,93,30.12,3.0,Calm,Calm,-,0.01,,Overcast,0,2013-01-30 04:36:00
11:51 PM,30.2,28.4,93,30.13,2.5,Calm,Calm,-,0.01,,Overcast,0,2013-01-30 04:51:00
11:54 PM,30.0,28.9,96,30.15,2.5,Calm,Calm,-,0.01,,Overcast,0,2013-01-30 04:54:00